[Date Prev][Date Next][Thread Prev][Thread Next] - [Date Index][Thread Index][Author Index]
2 Line ISS Keps 11-30
- Subject: [sarex] 2 Line ISS Keps 11-30
- From: "Dave Larsen PhD" <doc@xxxxxxxxxxx>
- Date: Sun, 30 Nov 2003 06:45:13 -0800
ISS
1 25544U 98067A 03334.27564138 .00032718 00000-0 33087-3 0 8296
2 25544 51.6309 262.3715 0005980 190.1886 326.7711 15.64974455286965
----
Via the sarex mailing list at AMSAT.ORG courtesy of AMSAT-NA.
To unsubscribe, send "unsubscribe sarex" to Majordomo@amsat.org
AMSAT Home